sat.trackr.live / text

‹ back to catalog

STARLINK-31007

NORAD 58889 · 2024-020P

PAYLOAD ACTIVE UNKNOWN

§ Identity

Operator
Country
US
Launch date
2024-01-29
Launch site
AFWTR
Launch vehicle
Mass (kg)
RCS (m²)

Purposes: comms

External: N2YO · Heavens-Above · Gunter

§ Orbital elements

Epoch: 2026-05-24T21:26:27.644064Z

Period
93.85 min
Inclination
53.1624°
Eccentricity
0.0001373
Mean motion
15.34404982 rev/d
Perigee alt
461.7 km
Apogee alt
463.6 km
Semi-major
6,840.8 km
B*
-1.0508e-4
RAAN
328.0792°
Arg perigee
84.1418°
Mean anomaly
275.9741°
Rev number
12,974

§ Raw data

STARLINK-310071 58889U 24020P   26144.89337551 -.00003925  00000+0 -10508-3 0  99912 58889  53.1624 328.0792 0001373  84.1418 275.9741 15.34404982129740

JSON: /api/v1/satellites/58889 · /tle

For live sub-satellite position, see the globe view (requires WebGL).

§ Visibility from observer

Set your observer location to see the next 7 days of passes ≥ 10°. The values pass through the URL so the page stays shareable.

No JS? Fill the form by hand. The geolocation button needs JavaScript.